Location: Arrodets-la-Barthe
(43.0306°N, 0.2829°E)
Time: 19:02:08
(UTC+00:00)

NOSS 8 (F) - Pass Details

Date: 24 October 2021
Orbit: 374 x 1788 km, 63.3° (Epoch: 02 December)

Event Time Altitude Azimuth Distance (km) Brightness Sun altitude
Rises 17:31:04 0° 211° (SSW) 2,753 9.1 -6.0°
Reaches altitude 10° 17:33:31 10° 210° (SSW) 1,695 7.9 -6.5°
Maximum altitude 17:37:07 74° 126° (SE) 444 4.2 -7.1°
Drops below altitude 10° 17:40:07 10° 40° (NE) 1,416 6.5 -7.6°
Enters shadow 17:41:02 - 39° (NE) 1,812 7.0 -7.8°
